Flag for U.S.A. Weather past 2 weeks in Fall River, Massachusetts, U.S.A.

Now
73 °F

Fog.


Feels Like: 69 °F
Forecast: 67 / 79 °F
Wind: 13 mph from South

Location: New Bedford Regional Airport

Current Time: Jul 28, 2014 at 8:48:30 AM

Latest Report: Jul 28, 2014 at 7:53 AM


Visibility: 4 mi

Pressure: 29.60 "Hg

Humidity: 97%

Dew point: 72 °F

Location of Fall RiverLocation

Historic Weather in Fall River — Graph

°F

Fall River temperature yesterday

Maximum temperature yesterday: 77 °F (at 10:53 AM)
Minimum temperature yesterday: 65 °F (at 2:53 AM)
Average temperature yesterday: 71 °F

Past Weeks' High & Low Weather Summary

 TemperatureHumidityPressure
High85 °F (Jul 22, 12:53 PM)100% (Jul 17, 12:53 AM)30.27 "Hg (Jul 17, 12:53 AM)
Low58 °F (Jul 19, 4:53 AM)39% (Jul 25, 1:53 PM)29.60 "Hg (Jul 28, 7:53 AM)
Average71 °F81%29.97 "Hg
* Reported Jul 13 7:53 AM — Jul 28 7:53 AM, Fall River, Weather by CustomWeather, © 2014

Note: Actual official high and low records may vary slightly from our data, if they occured in-between our weather recording intervals... More about our weather records

Advertising

Fall River weather history for previous 24 hours

 ConditionsComfort  
Time TempWeatherWind HumidityBarometerVisibility
7:53 AM
Jul 28
73 °FFog.13 mph97%29.60 "Hg4 mi
6:53 AM72 °FLight rain. Fog.8 mph97%29.62 "Hg2 mi
5:53 AM71 °FFog.6 mph96%29.62 "Hg5 mi
4:53 AM71 °FLow clouds.9 mph96%29.64 "Hg7 mi
3:53 AM72 °FLow clouds.6 mph97%29.64 "Hg7 mi
2:53 AM71 °FLow clouds.5 mph96%29.65 "Hg7 mi
2:04 AM72 °FFog.7 mph93%29.67 "Hg6 mi
1:53 AM72 °FFog.8 mph93%29.67 "Hg6 mi
12:53 AM72 °FLow clouds.9 mph93%29.69 "Hg7 mi
11:53 PM
Jul 27
71 °FLow clouds.7 mph96%29.70 "Hg7 mi
10:53 PM71 °FLow clouds.6 mph96%29.71 "Hg7 mi
9:53 PM71 °FLow clouds.7 mph96%29.69 "Hg9 mi
8:53 PM71 °FPartly sunny.8 mph96%29.72 "Hg10 mi
7:53 PM72 °FOvercast.8 mph93%29.70 "Hg10 mi
6:53 PM72 °FOvercast.10 mph91%29.71 "Hg10 mi
5:55 PM73 °FMostly cloudy.10 mph90%29.71 "Hg10 mi
4:53 PM73 °FMostly cloudy.14 mph90%29.72 "Hg10 mi
3:53 PM73 °FLight rain. Mostly cloudy.13 mph90%29.74 "Hg10 mi
2:53 PM72 °FLight rain. Mostly cloudy.12 mph91%29.75 "Hg10 mi
1:53 PM71 °FLight rain. Mostly cloudy.12 mph90%29.78 "Hg10 mi
1:02 PM72 °FRain. Fog.13 mph87%29.79 "Hg5 mi
12:53 PM72 °FLight rain. Cloudy.10 mph87%29.79 "Hg8 mi
11:53 AM74 °FLight rain. Mostly cloudy.14 mph76%29.81 "Hg10 mi
10:53 AM77 °FBroken clouds.15 mph69%29.82 "Hg10 mi
9:53 AM75 °FMostly cloudy.15 mph71%29.83 "Hg10 mi
8:53 AM74 °FMostly cloudy.16 mph76%29.83 "Hg10 mi
Weather by CustomWeather, © 2014

See weather overviewHow to use our weather pages